Location: Casa Rossa
(45.2389°N, 12.2056°E)
Time: 04:24:31
(UTC+00:00)

Cosmos 2082 Rocket - Pass Details

Date: 14 July 2020
Orbit: 834 x 853 km, 71.0° (Epoch: 11 August)

Event Time Altitude Azimuth Distance (km) Brightness Sun altitude
Exits shadow 02:22:44 14° 229° (SW) 2,192 3.7 -10.9°
Maximum altitude 02:27:28 50° 302° (WNW) 1,078 2.7 -10.4°
Drops below altitude 10° 02:33:01 10° 17° (NNE) 2,488 5.7 -9.7°
Sets 02:35:34 0° 23° (NNE) 3,425 6.8 -9.4°
